period_start,C,m1,H,J0,J1,J2,J3,J4,J5,JA,JB,JC,JD,JJ,JK,JN,#
2018-09-07 00:03:28,0.01,3.41,0.00,19.40,23.00,26.03,14.19,50.34,1012.59,2041.00,2401.98,2235.63,2553.01,600.32,601.27,52.31,0000 0000 0000 0000 000000
2018-09-07 00:08:29,0.01,3.41,0.00,19.42,23.02,25.98,14.15,50.38,1012.68,2041.00,2401.95,2235.35,2553.00,600.17,601.16,52.36,0000 0000 0000 0000 000000
2018-09-07 00:13:30,0.01,3.41,0.00,19.42,23.02,26.04,14.12,50.41,1012.67,2041.00,2401.93,2235.30,2553.00,600.04,601.05,52.41,0000 0000 0000 0000 000000
2018-09-07 00:18:32,0.00,3.41,0.00,19.44,23.03,26.07,14.11,50.47,1012.65,2041.00,2401.87,2235.12,2553.00,599.88,600.80,52.46,0000 0000 0000 0000 000000
2018-09-07 00:23:33,0.02,3.41,0.00,19.46,23.04,26.10,14.10,50.38,1012.69,2041.00,2401.38,2235.03,2553.00,599.84,600.90,52.51,0000 0000 0000 0000 000000
2018-09-07 00:28:34,0.00,3.42,0.00,19.47,23.04,26.11,14.07,50.49,1012.71,2041.00,2401.24,2235.02,2552.98,600.12,601.07,52.56,0000 0000 0000 0000 000000
2018-09-07 00:33:35,0.01,3.42,0.00,19.49,23.05,26.08,14.12,50.51,1012.71,2040.99,2401.11,2235.00,2552.87,600.11,600.90,52.61,0000 0000 0000 0000 000000
2018-09-07 00:38:36,0.03,3.42,0.00,19.50,23.06,26.07,14.12,50.50,1012.72,2040.99,2400.97,2234.91,2552.06,600.11,600.99,52.66,0000 0000 0000 0000 000000
2018-09-07 00:43:37,0.05,3.42,0.00,19.52,23.07,26.08,14.18,50.43,1012.74,2040.98,2400.24,2234.27,2551.98,600.29,601.10,52.71,0000 0000 0000 0000 000000
2018-09-07 00:48:39,-0.00,3.42,0.00,19.53,23.07,26.12,14.06,50.38,1012.77,2040.98,2400.08,2234.08,2551.99,600.02,600.89,52.76,0000 0000 0000 0000 000000
2018-09-07 00:53:40,0.00,3.42,0.00,19.54,23.08,26.12,14.04,50.42,1012.83,2040.98,2400.02,2234.09,2551.98,599.88,600.80,52.81,0000 0000 0000 0000 000000
2018-09-07 00:58:41,-0.00,3.42,0.00,19.55,23.09,26.15,14.04,50.43,1013.05,2040.95,2400.02,2234.06,2551.95,599.80,600.77,52.86,0000 0000 0000 0000 000000
2018-09-07 01:03:43,0.01,3.42,0.00,19.57,23.09,26.13,14.09,50.38,1013.17,2040.95,2400.01,2234.02,2551.92,600.20,601.07,52.91,0000 0000 0000 0000 000000
2018-09-07 01:08:44,0.00,3.42,0.00,19.59,23.10,26.13,14.13,50.46,1013.16,2040.95,2400.00,2234.03,2551.90,599.85,600.85,52.96,0000 0000 0000 0000 000000
2018-09-07 01:13:45,0.00,3.42,0.00,19.59,23.11,26.15,14.11,50.43,1013.16,2040.89,2400.00,2234.00,2551.61,599.85,600.65,53.01,0000 0000 0000 0000 000000
2018-09-07 01:18:46,0.01,3.42,0.00,19.59,23.12,26.15,14.16,50.39,1013.18,2040.92,2400.00,2234.00,2551.42,600.35,601.30,53.06,0000 0000 0000 0000 000000
2018-09-07 01:23:47,-0.03,3.42,0.00,19.57,23.12,26.16,14.13,50.42,1013.18,2040.71,2399.99,2234.00,2551.06,600.04,601.00,53.11,0000 0000 0000 0000 000000
2018-09-07 01:28:48,-0.01,3.42,0.00,19.59,23.13,26.17,14.12,50.39,1013.20,2040.52,2399.98,2234.00,2551.04,600.28,601.17,53.17,0000 0000 0000 0000 000000
2018-09-07 01:33:49,-0.03,3.42,0.00,19.60,23.14,26.15,14.10,50.39,1013.20,2040.21,2399.98,2234.00,2551.03,600.16,600.84,53.22,0000 0000 0000 0000 000000
2018-09-07 01:38:50,-0.01,3.42,0.00,19.60,23.14,26.18,14.09,50.40,1013.20,2040.16,2399.98,2234.00,2551.01,599.99,600.91,53.27,0000 0000 0000 0000 000000
2018-09-07 01:43:52,-0.00,3.42,0.00,19.62,23.15,26.19,14.12,50.46,1013.20,2040.16,2399.93,2233.99,2551.01,599.97,600.93,53.32,0000 0000 0000 0000 000000
2018-09-07 01:48:53,0.01,3.42,0.00,19.62,23.16,26.17,14.09,50.43,1013.20,2040.11,2399.59,2233.99,2551.00,599.92,600.87,53.37,0000 0000 0000 0000 000000
2018-09-07 01:53:55,0.00,3.42,0.00,19.64,23.17,26.16,14.08,50.37,1013.21,2040.04,2399.07,2233.97,2551.00,600.14,601.02,53.42,0000 0000 0000 0000 000000
2018-09-07 01:58:56,0.00,3.42,0.00,19.65,23.17,26.15,14.12,50.43,1013.25,2040.04,2399.05,2233.90,2550.98,599.99,600.86,53.47,0000 0000 0000 0000 000000
2018-09-07 02:03:57,0.01,3.42,0.00,19.67,23.18,26.13,14.04,50.40,1013.38,2040.02,2399.00,2233.64,2550.95,599.53,600.56,53.52,0000 0000 0000 0000 000000
2018-09-07 02:08:58,0.01,3.42,0.00,19.68,23.19,26.16,14.11,50.39,1013.51,2040.04,2399.00,2233.53,2550.91,599.93,600.93,53.57,0000 0000 0000 0000 000000
2018-09-07 02:14:00,0.02,3.42,0.00,19.70,23.19,26.18,14.23,50.47,1013.38,2040.03,2398.99,2233.11,2550.63,600.47,601.31,53.62,0000 0000 0000 0000 000000
2018-09-07 02:19:01,0.01,3.42,0.00,19.72,23.21,26.11,14.09,50.42,1013.43,2040.01,2398.99,2233.10,2550.42,599.98,600.80,53.67,0000 0000 0000 0000 000000
2018-09-07 02:24:02,0.00,3.42,0.00,19.74,23.22,26.10,14.08,50.33,1013.66,2040.01,2398.99,2233.06,2550.29,599.92,600.69,53.72,0000 0000 0000 0000 000000
2018-09-07 02:29:03,0.01,3.42,0.00,19.75,23.23,26.16,14.06,50.33,1013.69,2040.00,2398.98,2233.02,2550.08,599.94,600.88,53.77,0000 0000 0000 0000 000000
2018-09-07 02:34:04,0.00,3.42,0.00,19.77,23.24,26.11,14.09,50.33,1013.69,2040.00,2398.90,2233.00,2550.02,599.74,600.72,53.82,0000 0000 0000 0000 000000
2018-09-07 02:39:05,0.01,3.42,0.00,19.78,23.25,26.10,14.15,50.32,1013.69,2040.00,2398.65,2233.00,2550.00,600.11,600.92,53.87,0000 0000 0000 0000 000000
2018-09-07 02:44:06,0.01,3.42,0.00,19.79,23.27,26.13,14.07,50.33,1013.69,2040.00,2398.34,2233.00,2550.01,600.07,600.90,53.92,0000 0000 0000 0000 000000
2018-09-07 02:49:08,0.00,3.42,0.00,19.81,23.27,26.12,14.09,50.45,1013.69,2040.00,2398.23,2233.00,2550.00,600.09,600.90,53.97,0000 0000 0000 0000 000000
2018-09-07 02:54:09,0.00,3.42,0.00,19.83,23.29,26.09,14.10,50.35,1013.69,2040.00,2398.06,2233.00,2550.00,599.99,600.82,54.02,0000 0000 0000 0000 000000
2018-09-07 02:59:10,0.00,3.42,0.00,19.84,23.30,26.16,14.05,50.33,1013.70,2040.00,2398.02,2232.97,2550.00,599.92,600.65,54.07,0000 0000 0000 0000 000000
2018-09-07 03:04:12,0.00,3.42,0.00,19.86,23.32,26.12,14.06,50.33,1013.70,2040.00,2398.00,2232.96,2549.98,599.74,600.41,54.13,0000 0000 0000 0000 000000
2018-09-07 03:09:13,0.00,3.42,0.00,19.88,23.33,26.17,14.09,50.32,1013.71,2040.00,2398.00,2232.89,2549.96,600.02,600.59,54.18,0000 0000 0000 0000 000000
2018-09-07 03:14:14,-0.00,3.42,0.00,19.91,23.34,26.16,14.09,50.36,1013.71,2039.99,2398.00,2232.91,2549.90,599.89,600.57,54.23,0000 0000 0000 0000 000000
2018-09-07 03:19:15,0.02,3.42,0.00,19.92,23.37,26.11,14.14,50.46,1013.71,2039.97,2398.00,2232.62,2549.65,600.01,600.58,54.28,0000 0000 0000 0000 000000
2018-09-07 03:24:16,0.00,3.42,0.00,19.93,23.37,26.13,14.10,50.39,1013.75,2039.96,2398.00,2232.44,2549.47,600.23,600.78,54.33,0000 0000 0000 0000 000000
2018-09-07 03:29:17,0.01,3.42,0.00,19.96,23.39,26.15,14.08,50.33,1013.82,2039.94,2397.99,2232.24,2549.19,599.89,600.49,54.38,0000 0000 0000 0000 000000
2018-09-07 03:34:19,-0.02,3.42,0.00,19.98,23.41,26.17,14.10,50.36,1014.00,2039.76,2397.98,2232.20,2549.10,599.88,600.36,54.43,0000 0000 0000 0000 000000
2018-09-07 03:39:20,-0.03,3.42,0.00,19.99,23.42,26.16,14.14,50.36,1013.92,2039.42,2397.99,2232.06,2549.02,599.88,600.44,54.48,0000 0000 0000 0000 000000
2018-09-07 03:44:21,-0.03,3.42,0.00,20.00,23.45,26.19,14.08,50.44,1014.04,2039.17,2397.93,2232.02,2549.00,600.13,600.67,54.53,0000 0000 0000 0000 000000
2018-09-07 03:49:23,0.00,3.42,0.00,20.03,23.46,26.22,14.09,50.35,1014.17,2039.07,2397.81,2232.00,2549.00,599.99,600.71,54.58,0000 0000 0000 0000 000000
2018-09-07 03:54:24,0.01,3.42,0.00,20.06,23.48,26.20,14.16,50.29,1014.17,2039.03,2397.24,2232.00,2549.00,600.19,600.77,54.63,0000 0000 0000 0000 000000
2018-09-07 03:59:25,0.00,3.42,0.00,20.07,23.50,26.26,14.07,50.37,1014.16,2039.02,2397.05,2231.99,2548.97,600.03,600.65,54.68,0000 0000 0000 0000 000000
2018-09-07 04:04:26,0.00,3.42,0.00,20.08,23.52,26.27,14.10,50.38,1014.17,2039.01,2397.00,2231.98,2548.93,599.83,600.53,54.73,0000 0000 0000 0000 000000
2018-09-07 04:09:28,0.01,3.42,0.00,20.09,23.53,26.28,14.16,50.45,1014.17,2039.00,2397.00,2231.95,2548.72,600.18,600.59,54.78,0000 0000 0000 0000 000000
2018-09-07 04:14:29,0.01,3.42,0.00,20.10,23.55,26.28,14.17,50.35,1014.19,2039.00,2397.00,2231.89,2548.40,600.11,600.57,54.83,0000 0000 0000 0000 000000
2018-09-07 04:19:30,0.01,3.42,0.00,20.12,23.56,26.28,14.11,50.27,1014.21,2039.00,2397.00,2231.62,2548.11,600.15,600.57,54.88,0000 0000 0000 0000 000000
2018-09-07 04:24:32,0.01,3.42,0.00,20.15,23.57,26.30,14.07,50.26,1014.50,2038.97,2396.98,2231.27,2548.02,599.87,600.38,54.93,0000 0000 0000 0000 000000
2018-09-07 04:29:33,0.00,3.42,0.00,20.17,23.60,26.33,14.07,50.31,1014.61,2038.97,2396.97,2231.06,2548.00,599.99,600.54,54.98,0000 0000 0000 0000 000000
2018-09-07 04:34:34,0.01,3.42,0.00,20.18,23.61,26.36,14.07,50.45,1014.62,2038.97,2396.78,2231.02,2548.00,599.98,600.60,55.03,0000 0000 0000 0000 000000
2018-09-07 04:39:36,0.00,3.42,0.00,20.19,23.62,26.39,14.11,50.34,1014.61,2038.96,2396.57,2231.00,2548.00,600.31,600.86,55.09,0000 0000 0000 0000 000000
2018-09-07 04:44:37,-0.01,3.42,0.00,20.22,23.65,26.41,14.05,50.44,1014.61,2038.89,2396.56,2231.01,2548.00,599.66,600.44,55.14,0000 0000 0000 0000 000000
2018-09-07 04:49:38,-0.02,3.42,0.00,20.22,23.66,26.43,14.09,50.33,1014.65,2038.65,2396.58,2231.00,2548.00,600.20,600.84,55.19,0000 0000 0000 0000 000000
2018-09-07 04:54:40,-0.00,3.42,0.00,20.23,23.67,26.42,14.16,50.44,1014.65,2038.46,2396.43,2231.00,2547.99,600.32,600.68,55.24,0000 0000 0000 0000 000000
2018-09-07 04:59:41,-0.03,3.42,0.00,20.24,23.69,26.45,14.09,50.38,1014.64,2038.19,2396.06,2231.00,2547.93,600.04,600.45,55.29,0000 0000 0000 0000 000000
2018-09-07 05:04:42,0.00,3.42,0.00,20.25,23.70,26.48,14.04,50.32,1014.66,2038.09,2396.00,2230.97,2547.61,599.56,600.18,55.34,0000 0000 0000 0000 000000
2018-09-07 05:09:44,0.01,3.42,0.00,20.27,23.72,26.46,14.08,50.27,1014.66,2038.06,2396.00,2230.93,2547.24,600.33,600.64,55.39,0000 0000 0000 0000 000000
2018-09-07 05:14:45,-0.00,3.42,0.00,20.27,23.73,26.57,14.12,50.22,1014.66,2038.02,2396.00,2230.91,2547.12,600.30,600.59,55.44,0000 0000 0000 0000 000000
2018-09-07 05:19:46,0.00,3.42,0.00,20.28,23.75,26.54,14.12,50.34,1014.69,2038.01,2396.00,2230.86,2547.05,599.95,600.29,55.49,0000 0000 0000 0000 000000
2018-09-07 05:24:47,0.01,3.42,0.00,20.30,23.76,26.58,14.01,50.22,1014.72,2038.00,2395.99,2230.45,2547.02,599.61,600.04,55.54,0000 0000 0000 0000 000000
2018-09-07 05:29:49,0.01,3.42,0.00,20.32,23.77,26.54,14.03,50.35,1014.79,2038.00,2395.98,2230.16,2547.00,599.43,599.82,55.59,0000 0000 0000 0000 000000
2018-09-07 05:34:50,0.00,3.42,0.00,20.32,23.79,26.56,14.15,50.28,1014.83,2038.00,2395.98,2230.11,2547.00,600.28,600.73,55.64,0000 0000 0000 0000 000000
2018-09-07 05:39:51,-0.00,3.42,0.00,20.33,23.80,26.63,14.08,50.26,1015.12,2038.00,2395.96,2230.08,2547.00,600.26,600.84,55.69,0000 0000 0000 0000 000000
2018-09-07 05:44:52,0.01,3.42,0.00,20.35,23.82,26.64,14.08,50.24,1015.12,2038.00,2395.93,2230.05,2547.00,600.00,600.59,55.74,0000 0000 0000 0000 000000
2018-09-07 05:49:54,0.01,3.42,0.00,20.36,23.83,26.63,14.03,50.23,1015.13,2037.99,2395.57,2230.00,2546.97,599.59,600.16,55.79,0000 0000 0000 0000 000000
2018-09-07 05:54:55,0.00,3.42,0.00,20.37,23.85,26.63,14.11,50.37,1015.15,2037.97,2395.18,2230.00,2546.96,600.13,600.58,55.84,0000 0000 0000 0000 000000
2018-09-07 05:59:56,0.00,3.42,0.00,20.38,23.85,26.66,14.08,50.33,1015.15,2037.96,2395.07,2230.00,2546.93,600.17,600.76,55.89,0000 0000 0000 0000 000000
2018-09-07 06:04:58,0.00,3.43,0.00,20.39,23.87,26.68,14.15,50.38,1015.16,2037.96,2395.02,2230.00,2546.80,600.39,600.94,55.94,0000 0000 0000 0000 000000
2018-09-07 06:09:59,0.00,3.43,0.00,20.40,23.87,26.68,14.03,50.19,1015.20,2037.96,2395.01,2230.00,2546.69,599.92,600.36,55.99,0000 0000 0000 0000 000000
2018-09-07 06:15:00,-0.00,3.43,0.00,20.40,23.90,26.71,14.09,50.30,1015.30,2037.89,2395.00,2229.98,2546.30,599.99,600.53,56.05,0000 0000 0000 0000 000000
2018-09-07 06:20:01,0.01,3.43,0.00,20.42,23.90,26.74,14.12,50.26,1015.51,2037.90,2395.00,2229.97,2546.11,600.01,600.59,56.10,0000 0000 0000 0000 000000
2018-09-07 06:25:02,0.00,3.43,0.00,20.42,23.92,26.73,14.12,50.26,1015.48,2037.93,2395.00,2229.98,2546.10,599.85,600.33,56.15,0000 0000 0000 0000 000000
2018-09-07 06:30:04,-0.02,3.43,0.00,20.44,23.92,26.75,14.12,50.24,1015.60,2037.85,2394.99,2229.96,2546.04,600.09,600.67,56.20,0000 0000 0000 0000 000000
2018-09-07 06:35:05,-0.01,3.42,0.00,20.44,23.94,26.81,14.00,50.26,1015.64,2037.63,2394.99,2229.94,2546.01,599.45,600.12,56.25,0000 0000 0000 0000 000000
2018-09-07 06:40:06,-0.04,3.42,0.00,20.45,23.95,26.83,14.06,50.23,1015.65,2037.32,2394.98,2229.82,2546.01,599.89,600.53,56.30,0000 0000 0000 0000 000000
2018-09-07 06:45:08,-0.01,3.42,0.00,20.47,23.96,26.83,14.02,50.16,1015.75,2037.19,2394.99,2229.78,2546.00,599.68,600.41,56.35,0000 0000 0000 0000 000000
2018-09-07 06:50:09,0.01,3.42,0.00,20.47,23.97,26.81,14.09,50.16,1016.10,2037.11,2394.96,2229.41,2546.00,600.06,600.92,56.40,0000 0000 0000 0000 000000
2018-09-07 06:55:10,0.01,3.42,0.00,20.48,23.98,26.87,14.11,50.17,1016.11,2037.06,2394.97,2229.19,2546.00,600.11,600.96,56.45,0000 0000 0000 0000 000000
2018-09-07 07:00:12,-0.00,3.42,0.00,20.49,24.00,26.86,14.12,50.27,1016.12,2037.06,2394.90,2229.13,2546.00,600.00,600.79,56.50,0000 0000 0000 0000 000000
2018-09-07 07:05:13,0.00,3.42,0.00,20.50,24.00,26.85,14.11,50.21,1016.13,2037.02,2394.73,2229.07,2546.00,599.86,600.72,56.55,0000 0000 0000 0000 000000
2018-09-07 07:10:15,0.00,3.42,0.00,20.51,24.02,26.88,14.09,50.30,1016.13,2037.02,2394.51,2229.03,2545.97,600.30,601.01,56.60,0000 0000 0000 0000 000000
2018-09-07 07:15:17,0.01,3.42,0.00,20.52,24.02,26.91,14.09,50.25,1016.13,2037.01,2394.13,2229.01,2545.97,599.98,600.70,56.65,0000 0000 0000 0000 000000
2018-09-07 07:20:18,0.00,3.42,0.00,20.52,24.04,26.91,14.08,50.19,1016.13,2037.00,2394.06,2229.01,2545.96,599.76,600.65,56.70,0000 0000 0000 0000 000000
2018-09-07 07:25:19,0.00,3.42,0.00,20.52,24.05,26.93,14.17,50.31,1016.14,2037.00,2394.04,2229.00,2545.86,600.07,600.98,56.75,0000 0000 0000 0000 000000
2018-09-07 07:30:21,0.00,3.42,0.00,20.53,24.06,26.89,14.06,50.17,1016.13,2037.00,2394.03,2229.00,2545.82,599.75,600.53,56.80,0000 0000 0000 0000 000000
2018-09-07 07:35:22,0.01,3.42,0.00,20.54,24.07,26.93,14.05,50.27,1016.22,2037.00,2394.01,2229.00,2545.47,599.69,600.44,56.85,0000 0000 0000 0000 000000
2018-09-07 07:40:23,0.00,3.43,0.00,20.54,24.07,26.95,14.08,50.18,1016.28,2037.00,2394.00,2229.00,2545.23,600.11,600.99,56.90,0000 0000 0000 0000 000000
2018-09-07 07:45:24,0.00,3.43,0.00,20.54,24.09,26.96,14.09,50.29,1016.48,2037.00,2394.00,2229.00,2545.12,599.75,600.72,56.96,0000 0000 0000 0000 000000
2018-09-07 07:50:26,0.00,3.43,0.00,20.55,24.10,27.00,14.12,50.33,1016.58,2037.00,2394.00,2228.98,2545.05,599.98,600.97,57.01,0000 0000 0000 0000 000000
2018-09-07 07:55:27,0.00,3.43,0.00,20.57,24.10,26.98,14.07,50.21,1016.61,2037.00,2394.00,2228.97,2545.03,599.89,600.81,57.06,0000 0000 0000 0000 000000
2018-09-07 08:00:28,0.00,3.43,0.00,20.57,24.12,26.98,14.13,50.33,1016.62,2037.00,2394.00,2228.98,2545.03,600.03,600.88,57.11,0000 0000 0000 0000 000000
2018-09-07 08:05:29,0.00,3.43,0.00,20.57,24.12,27.03,14.13,50.26,1016.62,2037.00,2394.00,2228.97,2545.02,599.94,600.83,57.16,0000 0000 0000 0000 000000
2018-09-07 08:10:30,-0.00,3.43,0.00,20.57,24.12,27.01,14.10,50.27,1016.62,2036.99,2394.00,2228.97,2545.00,600.06,601.04,57.21,0000 0000 0000 0000 000000
2018-09-07 08:15:32,0.00,3.43,0.00,20.59,24.14,27.05,14.07,50.33,1016.63,2036.98,2393.98,2228.89,2545.00,599.98,600.94,57.26,0000 0000 0000 0000 000000
2018-09-07 08:20:33,0.00,3.43,0.00,20.59,24.15,27.08,14.11,50.33,1016.67,2036.99,2393.98,2228.86,2545.00,599.77,600.76,57.31,0000 0000 0000 0000 000000
2018-09-07 08:25:34,0.01,3.43,0.00,20.59,24.15,27.04,14.09,50.27,1016.75,2036.99,2393.96,2228.74,2545.00,599.32,600.42,57.36,0000 0000 0000 0000 000000
2018-09-07 08:30:35,0.02,3.43,0.00,20.61,24.16,27.07,14.07,50.28,1017.08,2036.98,2393.83,2228.27,2545.00,599.65,600.88,57.41,0000 0000 0000 0000 000000
2018-09-07 08:35:37,0.01,3.43,0.00,20.61,24.17,27.09,14.05,50.32,1017.06,2036.97,2393.57,2228.09,2545.00,600.04,601.13,57.46,0000 0000 0000 0000 000000
2018-09-07 08:40:38,0.01,3.43,0.00,20.59,24.17,27.14,14.09,50.33,1017.09,2036.97,2393.21,2228.05,2544.97,599.81,600.91,57.51,0000 0000 0000 0000 000000
2018-09-07 08:45:39,0.01,3.43,0.00,20.60,24.18,27.17,14.19,50.34,1017.10,2036.97,2393.06,2228.02,2544.87,600.18,601.44,57.56,0000 0000 0000 0000 000000
2018-09-07 08:50:40,0.01,3.43,0.00,20.63,24.19,27.13,14.16,50.34,1017.10,2036.94,2393.00,2228.00,2544.44,600.30,601.43,57.61,0000 0000 0000 0000 000000
2018-09-07 08:55:42,0.00,3.43,0.00,20.64,24.20,27.16,14.09,50.20,1017.11,2036.97,2393.00,2228.00,2544.33,600.01,601.19,57.66,0000 0000 0000 0000 000000
2018-09-07 09:00:43,0.00,3.43,0.00,20.64,24.20,27.14,14.15,50.24,1017.12,2036.94,2393.00,2228.00,2544.13,599.97,601.07,57.71,0000 0000 0000 0000 000000
2018-09-07 09:05:45,-0.00,3.43,0.00,20.63,24.20,27.17,14.10,50.28,1017.14,2036.92,2393.00,2227.99,2544.03,599.77,600.87,57.76,0000 0000 0000 0000 000000
2018-09-07 09:10:46,-0.01,3.43,0.00,20.64,24.22,27.17,14.13,50.30,1017.14,2036.90,2392.99,2227.98,2544.03,600.08,601.08,57.82,0000 0000 0000 0000 000000
2018-09-07 09:15:48,0.01,3.43,0.00,20.64,24.22,27.20,14.11,50.27,1017.25,2036.90,2392.99,2227.98,2544.03,599.92,601.21,57.87,0000 0000 0000 0000 000000
2018-09-07 09:20:49,0.00,3.43,0.00,20.65,24.22,27.17,14.08,50.23,1017.29,2036.90,2392.97,2227.99,2544.00,600.11,601.36,57.92,0000 0000 0000 0000 000000
2018-09-07 09:25:50,0.00,3.43,0.00,20.65,24.22,27.22,14.15,50.33,1017.51,2036.94,2392.95,2227.97,2544.00,600.06,601.37,57.97,0000 0000 0000 0000 000000
2018-09-07 09:30:51,0.00,3.43,0.00,20.67,24.23,27.28,14.13,50.39,1017.48,2036.92,2392.81,2227.96,2544.00,599.84,601.27,58.02,0000 0000 0000 0000 000000
2018-09-07 09:35:53,0.01,3.43,0.00,20.66,24.24,27.23,14.03,50.40,1017.59,2036.96,2392.53,2227.89,2544.00,599.33,600.57,58.07,0000 0000 0000 0000 000000
2018-09-07 09:40:54,0.03,3.43,0.00,20.67,24.25,27.23,14.10,50.32,1017.59,2036.91,2392.17,2227.43,2543.99,600.29,601.76,58.12,0000 0000 0000 0000 000000
2018-09-07 09:45:55,0.01,3.43,0.00,20.67,24.25,27.21,14.10,50.30,1017.59,2036.89,2392.02,2227.09,2543.98,599.69,601.04,58.17,0000 0000 0000 0000 000000
2018-09-07 09:50:56,-0.04,3.43,0.00,20.64,24.25,27.29,14.07,50.20,1017.59,2036.54,2392.00,2227.03,2543.69,599.78,601.12,58.22,0000 0000 0000 0000 000000
2018-09-07 09:55:57,0.02,3.43,0.00,20.65,24.25,27.24,14.13,50.21,1017.59,2036.39,2392.00,2227.01,2543.28,599.98,601.29,58.27,0000 0000 0000 0000 000000
2018-09-07 10:00:58,-0.01,3.43,0.00,20.65,24.25,27.27,14.11,50.27,1017.59,2036.44,2391.98,2227.00,2543.10,600.03,601.36,58.32,0000 0000 0000 0000 000000
2018-09-07 10:05:59,0.01,3.43,0.00,20.67,24.25,27.25,14.08,50.29,1017.59,2036.36,2391.82,2226.99,2543.01,599.79,601.22,58.37,0000 0000 0000 0000 000000
2018-09-07 10:11:01,-0.00,3.43,0.00,20.65,24.26,27.29,14.22,50.31,1017.60,2036.34,2391.42,2226.98,2542.99,600.46,601.84,58.42,0000 0000 0000 0000 000000
2018-09-07 10:16:02,0.00,3.43,0.00,20.66,24.27,27.28,13.99,50.15,1017.62,2036.16,2391.08,2226.90,2542.98,599.70,601.02,58.47,0000 0000 0000 0000 000000
2018-09-07 10:21:03,-0.00,3.43,0.00,20.66,24.27,27.29,14.12,50.24,1017.61,2036.17,2391.07,2226.84,2542.98,600.11,601.36,58.52,0000 0000 0000 0000 000000
2018-09-07 10:26:04,0.00,3.43,0.00,20.67,24.27,27.29,14.05,50.31,1017.65,2036.11,2391.02,2226.63,2542.94,599.52,600.97,58.57,0000 0000 0000 0000 000000
2018-09-07 10:31:05,0.02,3.43,0.00,20.66,24.27,27.34,14.16,50.17,1017.67,2036.13,2391.00,2226.29,2542.77,600.60,602.13,58.62,0000 0000 0000 0000 000000
2018-09-07 10:36:06,0.00,3.43,0.00,20.65,24.27,27.33,14.11,50.34,1017.71,2036.10,2391.00,2226.14,2542.61,600.16,601.59,58.67,0000 0000 0000 0000 000000
2018-09-07 10:41:08,0.00,3.43,0.00,20.64,24.27,27.29,14.20,50.31,1017.81,2036.11,2391.00,2226.07,2542.42,600.26,601.86,58.72,0000 0000 0000 0000 000000
2018-09-07 10:46:09,0.01,3.43,0.00,20.64,24.27,27.26,14.15,50.36,1017.72,2036.14,2391.00,2226.05,2542.23,599.95,601.42,58.77,0000 0000 0000 0000 000000
2018-09-07 10:51:10,0.00,3.43,0.00,20.64,24.27,27.31,14.10,50.35,1017.69,2036.11,2390.98,2226.02,2542.07,599.75,601.25,58.83,0000 0000 0000 0000 000000
2018-09-07 10:56:11,0.02,3.44,0.00,20.64,24.27,27.27,14.11,50.32,1017.71,2036.25,2390.94,2226.01,2542.02,599.90,601.38,58.88,0000 0000 0000 0000 000000
2018-09-07 11:01:13,-0.00,3.44,0.00,20.64,24.27,27.30,14.08,50.34,1017.76,2036.24,2390.81,2226.00,2542.00,599.71,601.07,58.93,0000 0000 0000 0000 000000
2018-09-07 11:06:14,0.02,3.44,0.00,20.64,24.27,27.30,14.17,50.38,1017.79,2036.24,2390.22,2226.00,2542.00,600.20,601.72,58.98,0000 0000 0000 0000 000000
2018-09-07 11:11:15,0.01,3.44,0.00,20.62,24.27,27.32,14.03,50.51,1017.75,2036.28,2390.06,2226.00,2542.00,599.20,600.84,59.03,0000 0000 0000 0000 000000
2018-09-07 11:16:16,0.04,3.44,0.00,20.62,24.27,27.33,14.14,50.36,1017.70,2036.55,2390.06,2225.99,2541.99,600.39,601.91,59.08,0000 0000 0000 0000 000000
2018-09-07 11:21:18,0.00,3.44,0.00,20.62,24.27,27.33,14.18,50.56,1017.63,2036.66,2390.03,2225.99,2541.99,600.12,601.50,59.13,0000 0000 0000 0000 000000
2018-09-07 11:26:19,0.02,3.44,0.00,20.61,24.26,27.30,14.21,50.37,1017.62,2036.74,2389.99,2225.79,2541.83,600.27,601.80,59.18,0000 0000 0000 0000 000000
2018-09-07 11:31:20,0.02,3.44,0.00,20.60,24.26,27.29,14.17,50.40,1017.63,2036.74,2389.95,2225.33,2541.29,600.17,601.67,59.23,0000 0000 0000 0000 000000
2018-09-07 11:36:22,0.03,3.44,0.00,20.60,24.25,27.33,14.10,50.33,1017.65,2036.75,2389.45,2225.08,2541.06,599.77,601.23,59.28,0000 0000 0000 0000 000000
2018-09-07 11:41:23,0.01,3.44,0.00,20.59,24.25,27.34,14.13,50.46,1017.62,2036.70,2389.00,2225.00,2540.99,599.67,601.18,59.33,0000 0000 0000 0000 000000
2018-09-07 11:46:24,0.07,3.45,0.00,20.58,24.25,27.33,14.17,50.43,1017.69,2036.84,2388.25,2224.82,2540.34,600.06,601.71,59.38,0000 0000 0000 0000 000000
2018-09-07 11:51:25,0.06,3.45,0.00,20.58,24.25,27.30,14.07,50.40,1017.74,2036.93,2387.51,2224.12,2539.90,599.74,601.38,59.43,0000 0000 0000 0000 000000
2018-09-07 11:56:27,0.03,3.45,0.00,20.57,24.25,27.28,14.13,50.53,1017.66,2036.97,2386.99,2224.00,2539.13,599.74,601.40,59.48,0000 0000 0000 0000 000000
2018-09-07 12:01:28,0.00,3.45,0.00,20.56,24.25,27.29,14.11,50.53,1017.67,2036.97,2386.94,2224.00,2539.01,599.83,601.51,59.53,0000 0000 0000 0000 000000
2018-09-07 12:06:29,0.01,3.45,0.00,20.56,24.24,27.28,14.08,50.49,1017.67,2036.98,2386.61,2223.98,2539.00,599.78,601.41,59.58,0000 0000 0000 0000 000000
2018-09-07 12:11:30,0.07,3.46,0.00,20.54,24.23,27.30,14.14,50.48,1017.64,2036.97,2385.89,2223.31,2538.47,599.96,601.58,59.63,0000 0000 0000 0000 000000
2018-09-07 12:16:32,0.05,3.46,0.00,20.53,24.22,27.28,14.15,50.44,1017.62,2036.97,2384.98,2222.96,2537.69,600.07,601.70,59.68,0000 0000 0000 0000 000000
2018-09-07 12:21:33,0.07,3.46,0.00,20.52,24.22,27.29,14.20,50.52,1017.62,2036.99,2384.02,2222.38,2536.93,600.04,601.77,59.73,0000 0000 0000 0000 000000
2018-09-07 12:26:34,0.09,3.47,0.00,20.51,24.22,27.29,14.04,50.50,1017.61,2036.98,2382.80,2221.69,2535.97,599.43,601.05,59.78,0000 0000 0000 0000 000000
2018-09-07 12:31:35,0.05,3.47,0.00,20.50,24.22,27.26,14.12,50.56,1017.61,2036.97,2381.99,2221.03,2535.13,600.00,601.69,59.84,0000 0000 0000 0000 000000
2018-09-07 12:36:36,0.13,3.47,0.00,20.49,24.21,27.28,14.14,50.47,1017.61,2036.99,2380.62,2220.12,2533.96,600.16,601.87,59.89,0000 0000 0000 0000 000000
2018-09-07 12:41:38,0.16,3.48,0.00,20.49,24.20,27.27,14.14,50.59,1017.63,2036.98,2378.55,2218.63,2532.02,599.56,601.33,59.94,0000 0000 0000 0000 000000
2018-09-07 12:46:39,0.13,3.49,0.00,20.48,24.20,27.29,14.19,50.65,1017.65,2036.98,2376.81,2217.44,2530.44,600.13,601.88,59.99,0000 0000 0000 0000 000000
2018-09-07 12:51:40,0.10,3.50,0.00,20.48,24.20,27.27,14.15,50.67,1017.63,2036.99,2375.26,2216.44,2529.13,600.09,601.85,60.04,0000 0000 0000 0000 000000
2018-09-07 12:56:41,0.05,3.50,0.00,20.47,24.20,27.28,14.19,50.62,1017.61,2036.99,2374.52,2216.01,2528.46,600.04,601.80,60.09,0000 0000 0000 0000 000000